This demonstration page uses our WeatherBlox Daily Observations layout. Learn more.

Left ArrowRight Arrow

34.02893, -84.19858

Hourly Observations for August 6, 2022

Temp ( °F °C ) Dew Point ( °F °C ) Humidity (%) Winds ( mph kmh ) Pressure ( in mb ) Visibility ( mi km ) Precip ( " mm )
12:53 am 00:53 Clear 75 23.9 71 21.7 88 88 Calm 30.15 1021 10 16 0.00 0.00
1:53 am 01:53 Clear 75 23.9 71 21.7 88 88 Calm 30.14 1021 10 16 0.00 0.00
2:53 am 02:53 Clear 73 22.8 72 22.2 96 96 Calm 30.14 1021 10 16 0.00 0.00
3:53 am 03:53 Clear 73 22.8 71 21.7 94 94 Calm 30.13 1020 10 16 0.00 0.00
4:53 am 04:53 Clear 73 22.8 72 22.2 96 96 Calm 30.14 1021 10 16 0.00 0.00
5:53 am 05:53 Clear 73 22.8 71 21.7 94 94 Calm 30.16 1021 10 16 0.00 0.00
6:41 am 06:41 Mostly Cloudy 73 22.8 71 21.7 94 94 Calm 30.18 1022 10 16 0.00 0.00
6:53 am 06:53 Mostly Cloudy 73 22.8 71 21.7 94 94 Calm 30.18 1022 10 16 0.00 0.00
7:53 am 07:53 Cloudy 74 23.3 72 22.2 94 94 Calm 30.20 1023 9 14 0.00 0.00
8:53 am 08:53 Cloudy 75 23.9 73 22.8 94 94 Calm 30.21 1023 9 14 0.00 0.00
9:53 am 09:53 Cloudy 76 24.4 73 22.8 91 91 VRB 3 6 30.23 1024 10 16 0.00 0.00
10:48 am 10:48 Cloudy 79 26 73 23 84 84 E 3 6 30.23 1024 10 16 0.00 0.00
10:53 am 10:53 Cloudy 78 25.6 73 22.8 85 85 Calm 30.23 1024 10 16 0.00 0.00
11:00 am 11:00 Cloudy 79 26.1 73 22.8 82 82 Calm 30.23 1024 10 16 0.00 0.00
11:53 am 11:53 Cloudy 81 27.2 73 22.8 77 77 VRB 3 6 30.23 1024 10 16 0.00 0.00
12:53 pm 12:53 Mostly Cloudy 83 28.3 74 23.3 74 74 Calm 30.22 1023 10 16 0.00 0.00
1:04 pm 13:04 Mostly Cloudy 84 28.9 74 23.3 72 72 Calm 30.21 1023 10 16 0.00 0.00
1:53 pm 13:53 Mostly Cloudy 84 28.9 73 22.8 70 70 VRB 3 6 30.19 1022 10 16 0.00 0.00
2:53 pm 14:53 Partly Cloudy 85 29.4 73 22.8 68 68 Calm 30.16 1021 10 16 0.00 0.00
3:53 pm 15:53 Partly Cloudy 88 31.1 73 22.8 61 61 VRB 5 7 30.13 1020 10 16 0.00 0.00
4:53 pm 16:53 Mostly Sunny 87 30.6 72 22.2 61 61 Calm 30.11 1020 10 16 0.00 0.00
5:53 pm 17:53 Mostly Sunny 88 31.1 71 21.7 57 57 SSE 5 7 30.10 1019 10 16 0.00 0.00
6:53 pm 18:53 Sunny 89 31.7 71 21.7 55 55 Calm 30.10 1019 10 16 0.00 0.00
7:42 pm 19:42 Sunny with Nearby Thunderstorms 84 28.9 74 23.3 72 72 Calm 30.12 1020 10 16 0.00 0.00
7:53 pm 19:53 Partly Cloudy with Nearby Thunderstorms 86 30 71 21.7 61 61 Calm 30.13 1020 10 16 0.00 0.00
8:01 pm 20:01 Mostly Cloudy with Thunderstorms 85 29.4 72 22.2 65 65 N 7 11 30.12 1020 10 16 0.00 0.00
8:48 pm 20:48 Cloudy with Strong Thunderstorms 73 23 70 21 89 89 SE 5 7 30.21 1023 2 3 0.13 3.30
8:53 pm 20:53 Cloudy with Strong Thunderstorms 72 22.2 70 21.1 94 94 SE 9 15 30.22 1023 1 2 0.26 6.60
9:27 pm 21:27 Cloudy with Strong Thunderstorms 70 21.1 68 20 93 93 SSE 9 15 30.23 1024 2 3 0.87 22.10
9:36 pm 21:36 Cloudy with Thunderstorms 70 21.1 67 19.4 90 90 SE 9 15 30.23 1024 5 8 0.89 22.61
9:53 pm 21:53 Cloudy with Thunderstorms 70 21.1 68 20 93 93 SE 5 7 30.22 1023 10 16 0.90 22.86
10:09 pm 22:09 Mostly Cloudy with Nearby Thunderstorms 70 21.1 69 20.6 97 97 SE 3 6 30.24 1024 9 14 0.01 0.25
10:26 pm 22:26 Mostly Cloudy with Nearby Thunderstorms 71 21.7 69 20.6 94 94 SSW 5 7 30.25 1024 10 16 0.01 0.25
10:53 pm 22:53 Clear with Nearby Thunderstorms 71 21.7 70 21.1 96 96 S 3 6 30.23 1024 10 16 0.01 0.25
11:32 pm 23:32 Clear 71 21.7 70 21.1 96 96 Calm 30.25 1024 10 16 0.00 0.00
11:41 pm 23:41 Partly Cloudy 71 21.7 70 21.1 96 96 Calm 30.25 1024 10 16 0.00 0.00
11:50 pm 23:50 Mostly Cloudy 72 22 70 21 94 94 S 6 9 30.25 1024 10 16 0.00 0.00
11:53 pm 23:53 Partly Cloudy 71 21.7 70 21.1 96 96 SSE 6 9 30.23 1024 10 16 0.00 0.00

Powered by AerisWeather